Showing default

CENTISPACE-1 S11, 62580

Orbit data source: Space-Track

CENTISPACE-1 S11, 62580 is a payload satellite owned by Centispace (CN) in LEO that was launched on Mon, 13 Jan 2025 UTC via a JIELONG-3 launch vehicle from the Yellow Sea Launch Area, China (YSLA). Payloads include a variety of satellites, spacecraft, and rockets equipped with specific instruments for various scientific and technological missions. These include communications satellites like Starlink; space stations such as the ISS; scientific satellites like the Hubble; Earth observation satellites from companies like Planet Labs, Umbra, and HawkEye 360; GPS; miniature CubeSats for education and research; and military/defense satellites.

Loading next visibility...
CENTISPACE-1 S11 details
Identifier
62580, 2025-007F
Orbit
LEO
Last TLE update8 hours ago
Origin
Flag of CNCentispace (CN / PRC)
ManufacturerDFH Shenzhen
MissionOperational spacecraft
Bus & MotorWK01, Unknown motor
Mass160 kg wet, 160 kg dry
Launch date (UTC)
2025-01-13 (3 weeks ago)
Launch vehicle
JIELONG-3
Launch site
Yellow Sea Launch Area, China (YSLA)
Object type
Payload
Rocket body
Debris
Shape & HBRUnknown
Radar Cross SectionMedium (>0.1 m² and <1 m²)

Expand to show TLE details & history

TLE from 8 hours ago
0 CENTISPACE-1 S11
1 62580U 25007F   25035.84992842  .00003664  00000-0  53669-3 0  9997
2 62580  54.9777  35.2850 0015842 354.6213   5.4615 14.77636093  3357
Epoch: 2025-02-04T20:23Z
Definitive object data (Epoch: 2025-02-04T20:23:53.815Z)
Latitude-0.00001°
Longitude-45.93855°
Altitude626.801 km
Speed7.552 km/s
True Right ascension02h 21m 08s
True Declination0° 00' 00"
Sunlit
Object was in daylight at TLE epoch
Visualization TLE readout
Latitude-49.32838°
Longitude-173.02953°
Altitude657.379 km
Speed7.527 km/s
Apparent Right ascension17h 57m 41s
Apparent Declination-44° 40' 42"
Sunlit
Object is in daylight
Visualization observer readout
Local Sidereal Time06:02:18
Azimuth170.238° S
Elevation-85.162°
Doppler factor1
Orbital elements
Apogee altitude647.876 km
Perigee altitude625.65 km
Semi-major axis7,014.9 km
Eccentricity0.0015842
Inclination54.9777°
RAAN35.285°
Arg. of periapsis354.6213°
True anomaly5.47881°
Mean anomaly5.4615°
Eccentric anomaly5.47015°
Mean motion3.69412 °/min
BSTAR0.00053669
Orbital period97.45 mins
Loading maneuver chart data...
Loading historical data...
Loading historical data...
Loading historical data...
Loading historical data...
Loading historical data...
Loading historical data...
Loading historical data...

CENTISPACE-1 S11 Visibility forecast

Observer location: undefined°, undefined

Span
Click to sort rows by Start time (UTC) header in descending order
Start Az.
Max El. time (UTC)
Max El. Az.
Max El.
End time (UTC)
End Az.
5 mins2025-02-05 04:48:31.568Z308.666° NW2025-02-05 04:50:31.568Z337.113° NNW15.891°2025-02-05 04:53:31.568Z19.585° NNE
5 mins2025-02-05 08:14:31.568Z349.257° N2025-02-05 08:16:31.568Z25.261° NE22.625°2025-02-05 08:19:31.568Z74.712° E
7 mins2025-02-05 09:55:31.568Z306.208° NW2025-02-05 09:58:31.568Z203.909° SW43.5°2025-02-05 10:02:31.568Z142.419° SSE
7 mins2025-02-06 01:47:31.568Z199.187° SSW2025-02-06 01:50:31.568Z111.596° ESE37.81°2025-02-06 01:54:31.568Z55.746° ENE
6 mins2025-02-06 03:29:31.568Z286.513° WNW2025-02-06 03:31:31.568Z326.354° NNW25.929°2025-02-06 03:35:31.568Z29.884° NE
|